Location: Bu�n Treun
(12.1333°N, 108.3167°E)
Time: 01:19:46
(UTC+00:00)

BREEZE-M (TANK) - Visible Passes

Search period start: 24 October 2020 00:00
Search period end: 03 November 2020 00:00
Orbit: 289 x 17599 km, 49.4° (Epoch: 23 October)

Date Brightness Start Highest point End Pass type
(mag) Time Alt. Az. Time Alt. Az. Time Alt. Az.
24 Oct 6.8 10:50:16 10° NNW 11:02:11 76° ENE 12:49:51 10° SSE visible
24 Oct 9.3 17:17:45 10° SW 17:36:14 10° SW 18:06:04 10° SSW visible
25 Oct 8.2 13:09:24 10° WNW 13:31:43 48° SW 16:02:17 10° SSE visible
25 Oct 7.6 22:20:56 10° SSW 22:58:44 34° SSE 23:07:03 10° E visible
26 Oct 6.6 10:00:22 10° NNW 10:10:54 57° ENE 11:34:23 10° SE visible
26 Oct 9.1 15:46:51 10° WSW 16:24:37 17° SW 19:26:39 10° SSE visible
27 Oct 7.9 12:17:52 10° WNW 12:35:45 59° SW 14:56:06 10° SSE visible
27 Oct 8.2 21:20:08 10° SSW 22:04:38 27° SSE 22:15:16 10° E visible
28 Oct 6.5 09:10:44 10° N 09:20:16 39° ENE 10:16:39 10° SE visible
28 Oct 8.9 14:45:48 10° W 15:20:29 24° SW 18:08:20 10° SSE visible
29 Oct 7.4 11:26:48 10° NW 11:41:14 72° SW 13:47:35 10° SSE visible
29 Oct 8.7 20:16:17 10° SSW 21:08:49 22° SSE 21:22:18 10° ESE visible
30 Oct 8.6 13:50:00 10° W 14:19:22 31° SW 16:57:02 10° SSE visible
31 Oct 6.9 10:36:04 10° NW 10:48:01 89° SW 12:36:27 10° SSE visible
31 Oct 8.8 19:04:16 10° SSW 20:10:13 17° SSE 20:27:19 10° ESE visible
01 Nov 8.4 12:56:22 10° WNW 13:20:17 40° SW 15:49:01 10° SSE visible
01 Nov 7.0 22:05:06 10° SSW 22:45:53 46° SE 22:53:28 10° ENE visible
02 Nov 6.6 09:45:34 10° NNW 09:55:51 71° ENE 11:22:44 10° SE visible
02 Nov 9.1 15:50:59 10° SW 16:26:18 12° SW 19:28:12 10° SE visible
